Darstellungsparameter: Aktuell verwendete Einstellungen:
Skalierung der Graphiken ... ?
xyx+y,   Skalierungsfaktor:      Skalierung: Modus: x, Faktor: 1
Darstellungszeitraum ... ?
Vom - - bis: - -   Zeitraum: 05.05.2010 - 07.05.2010
Min/Max/Avg-Anzeige ... ?
Zeige MMA aktuell
Zeige MMA Monat
Zeige MMA alles
Zeige --A aktuell
Zeige --A Monat
Zeige --A alles
Keine MMA-Anzeige
MMA:
Average (ber die Originaldaten)
MMA-Basis: 05.05.2010 - 07.05.2010
Quicknavigation für Darstellung... ?
Tage:      1T, 2T, 3T, 5T -1T -2T -3T -5T +1T +2T +3T +5T
Wochen: 1W, 2W, 3W -1W -2W -3W +1W +2W +3W
Monate: 1M, 3M, 6M -1M -3M -6M +1M +3M +6M
Jahre:    1J, 3J, 5J, 10J -1J -3J -5J -10J +1J +3J +5J +10J
Nutze für die Darstellung ... ?
Originaldaten oder Mittelwerte auf ...
Stundenbasis Tagesbasis Wochenbasis
Monatsbasis Jahresbasis      Datenbasis: Original-Daten
Darstellen als:
Statistik (Auto) Statistik J:M      Darstellung:
Zur Graphik,    zurück zur Übersicht aller Sensoren.
 
Tabellarische Datenbersicht: ?
 
Sensor: Nr:Datum:Temp:Abs-Feuchte:Windchill:Wind:
Aussen-T/F 1 05-05-2010 00:09:05 6.8 C 4.05 g/m*3 6.8 C 0 km/h
2 05-05-2010 00:21:05 6.7 C 4.18 g/m*3 6.7 C 0 km/h
3 05-05-2010 00:33:05 6.3 C 4.22 g/m*3 6.3 C 0 km/h
4 05-05-2010 00:45:05 6 C 4.21 g/m*3 6 C 0 km/h
5 05-05-2010 00:57:05 5.8 C 4.37 g/m*3 5.8 C 0 km/h
6 05-05-2010 01:09:05 5.5 C 4.35 g/m*3 5.5 C 0 km/h
7 05-05-2010 01:21:05 5.3 C 4.44 g/m*3 5.3 C 0 km/h
8 05-05-2010 01:33:05 5.4 C 4.4 g/m*3 5.4 C 0 km/h
9 05-05-2010 01:45:05 5.6 C 4.31 g/m*3 5.6 C 0 km/h
10 05-05-2010 01:57:05 5.6 C 4.24 g/m*3 5.6 C 0 km/h
11 05-05-2010 02:09:05 5.7 C 4.13 g/m*3 5.7 C 0 km/h
12 05-05-2010 02:21:05 5.7 C 4.13 g/m*3 5.7 C 0 km/h
13 05-05-2010 02:33:05 5.6 C 4.17 g/m*3 5.6 C 0 km/h
14 05-05-2010 02:45:06 5.5 C 4.21 g/m*3 5.5 C 0 km/h
15 05-05-2010 02:57:06 5.2 C 4.2 g/m*3 5.2 C 0 km/h
16 05-05-2010 03:09:06 5.1 C 4.24 g/m*3 5.1 C 0 km/h
17 05-05-2010 03:21:06 4.8 C 4.22 g/m*3 4.8 C 0 km/h
18 05-05-2010 03:33:06 4.7 C 4.13 g/m*3 4.7 C 0 km/h
19 05-05-2010 03:45:06 4.6 C 4.1 g/m*3 4.6 C 0 km/h
20 05-05-2010 03:57:06 4.5 C 4.01 g/m*3 4.5 C 0 km/h
21 05-05-2010 04:09:06 4.3 C 3.96 g/m*3 4.3 C 0 km/h
22 05-05-2010 04:21:06 4 C 4.01 g/m*3 4 C 0 km/h
23 05-05-2010 04:33:06 3.8 C 4.08 g/m*3 3.8 C 0 km/h
24 05-05-2010 04:45:06 3.7 C 4.11 g/m*3 3.7 C 0 km/h
25 05-05-2010 04:57:06 3.7 C 4.05 g/m*3 3.7 C 0 km/h
Sensor: Nr:Datum:Temp:Abs-Feuchte:Windchill:Wind:
Aussen-T/F 26 05-05-2010 05:09:06 3.6 C 4.02 g/m*3 3.6 C 0 km/h
27 05-05-2010 05:21:06 3.6 C 3.96 g/m*3 3.6 C 0 km/h
28 05-05-2010 05:33:06 3.6 C 3.9 g/m*3 3.6 C 0 km/h
29 05-05-2010 05:45:06 3.4 C 3.79 g/m*3 3.4 C 0 km/h
30 05-05-2010 05:57:06 3.2 C 3.86 g/m*3 3.2 C 0 km/h
31 05-05-2010 06:09:06 3 C 3.86 g/m*3 3 C 0 km/h
32 05-05-2010 06:21:06 2.8 C 3.99 g/m*3 2.8 C 0 km/h
33 05-05-2010 06:33:03 2.6 C 3.99 g/m*3 2.6 C 0 km/h
34 05-05-2010 06:45:03 2.5 C 4.02 g/m*3 2.5 C 0 km/h
35 05-05-2010 06:57:03 2.5 C 4.08 g/m*3 2.5 C 0 km/h
36 05-05-2010 07:09:02 2.5 C 4.14 g/m*3 2.5 C 0 km/h
37 05-05-2010 07:21:03 2.7 C 4.25 g/m*3 2.7 C 0 km/h
38 05-05-2010 07:33:02 2.8 C 4.28 g/m*3 2.8 C 0 km/h
39 05-05-2010 07:45:02 3 C 4.28 g/m*3 3 C 0 km/h
40 05-05-2010 07:57:02 3.4 C 4.4 g/m*3 3.4 C 0 km/h
41 05-05-2010 08:09:02 3.8 C 4.45 g/m*3 3.8 C 0 km/h
42 05-05-2010 08:21:02 4.4 C 4.31 g/m*3 4.4 C 0 km/h
43 05-05-2010 08:33:02 4.6 C 4.17 g/m*3 4.6 C 0 km/h
44 05-05-2010 08:45:02 4.9 C 4.12 g/m*3 4.9 C 0 km/h
45 05-05-2010 08:57:02 5.3 C 4.02 g/m*3 5.3 C 0 km/h
46 05-05-2010 09:09:01 6 C 3.99 g/m*3 6 C 0 km/h
47 05-05-2010 09:21:02 6.6 C 3.85 g/m*3 6.6 C 0 km/h
48 05-05-2010 09:33:02 7.2 C 3.92 g/m*3 7.2 C 0 km/h
49 05-05-2010 09:45:02 7.5 C 3.76 g/m*3 7.5 C 0 km/h
50 05-05-2010 09:57:02 7.9 C 3.7 g/m*3 7.9 C 0 km/h
Sensor: Nr:Datum:Temp:Abs-Feuchte:Windchill:Wind:
Aussen-T/F 51 05-05-2010 10:09:02 8.1 C 3.58 g/m*3 8.1 C 0 km/h
52 05-05-2010 10:21:02 8.6 C 3.52 g/m*3 8.6 C 0 km/h
53 05-05-2010 10:33:02 9.5 C 3.37 g/m*3 9.5 C 0 km/h
54 05-05-2010 10:45:01 9.6 C 3.11 g/m*3 9.6 C 0 km/h
55 05-05-2010 10:57:01 10 C 2.91 g/m*3 10 C 0 km/h
56 05-05-2010 11:09:02 10.4 C 2.89 g/m*3 10.4 C 0 km/h
57 05-05-2010 11:21:01 10.7 C 2.75 g/m*3 10.7 C 0 km/h
58 05-05-2010 11:33:02 11.2 C 3.04 g/m*3 11.2 C 0 km/h
59 05-05-2010 11:45:02 11.9 C 2.65 g/m*3 11.9 C 0 km/h
60 05-05-2010 11:57:02 12.5 C 2.42 g/m*3 12.5 C 0 km/h
61 05-05-2010 12:09:02 12.7 C 2.23 g/m*3 12.7 C 0 km/h
62 05-05-2010 12:21:01 12.7 C 2.23 g/m*3 12.7 C 0 km/h
63 05-05-2010 12:33:02 13.4 C 2.32 g/m*3 13.4 C 0 km/h
64 05-05-2010 12:45:02 14.6 C 2.5 g/m*3 14.6 C 0 km/h
65 05-05-2010 12:57:02 15.2 C 2.6 g/m*3 15.2 C 0 km/h
66 05-05-2010 13:09:02 15.9 C 2.71 g/m*3 15.9 C 0 km/h
67 05-05-2010 13:21:01 16.6 C 2.83 g/m*3 16.6 C 0 km/h
68 05-05-2010 13:33:02 17.2 C 2.93 g/m*3 17.2 C 0 km/h
69 05-05-2010 13:45:01 16.6 C 2.83 g/m*3 16.6 C 0 km/h
70 05-05-2010 13:57:01 16.4 C 2.79 g/m*3 16.4 C 0 km/h
71 05-05-2010 14:09:02 16.7 C 2.84 g/m*3 16.7 C 0 km/h
72 05-05-2010 14:21:02 16.7 C 2.84 g/m*3 16.7 C 0 km/h
73 05-05-2010 14:33:01 17 C 2.89 g/m*3 17 C 0 km/h
74 05-05-2010 14:45:01 17.4 C 2.96 g/m*3 17.4 C 0 km/h
75 05-05-2010 14:57:01 17.5 C 2.98 g/m*3 17.5 C 0 km/h
Sensor: Nr:Datum:Temp:Abs-Feuchte:Windchill:Wind:
Aussen-T/F 76 05-05-2010 15:09:02 18.3 C 3.13 g/m*3 18.3 C 0 km/h
77 05-05-2010 15:21:02 18.2 C 3.11 g/m*3 18.2 C 0 km/h
78 05-05-2010 15:33:01 17.8 C 3.04 g/m*3 17.8 C 0 km/h
79 05-05-2010 15:45:02 18 C 3.07 g/m*3 18 C 0 km/h
80 05-05-2010 15:57:02 18.2 C 3.11 g/m*3 18.2 C 0 km/h
81 05-05-2010 16:09:01 18.3 C 3.13 g/m*3 18.3 C 0 km/h
82 05-05-2010 16:21:01 18.1 C 3.09 g/m*3 18.1 C 0 km/h
83 05-05-2010 16:33:01 17.7 C 3.02 g/m*3 17.7 C 0 km/h
84 05-05-2010 16:45:02 17.5 C 2.98 g/m*3 17.5 C 0 km/h
85 05-05-2010 16:57:02 17.2 C 2.93 g/m*3 17.2 C 0 km/h
86 05-05-2010 17:09:02 16.7 C 2.84 g/m*3 16.7 C 0 km/h
87 05-05-2010 17:21:02 16.2 C 2.76 g/m*3 16.2 C 0 km/h
88 05-05-2010 17:33:02 15.6 C 2.66 g/m*3 15.6 C 0 km/h
89 05-05-2010 17:45:02 15.1 C 2.58 g/m*3 15.1 C 0 km/h
90 05-05-2010 17:57:02 14.8 C 2.53 g/m*3 14.8 C 0 km/h
91 05-05-2010 18:09:01 14.5 C 2.49 g/m*3 14.5 C 0 km/h
92 05-05-2010 18:21:01 14.4 C 2.47 g/m*3 14.4 C 0 km/h
93 05-05-2010 18:33:02 14.2 C 2.44 g/m*3 14.2 C 0 km/h
94 05-05-2010 18:45:02 14.1 C 2.43 g/m*3 14.1 C 0 km/h
95 05-05-2010 18:57:02 13.8 C 2.38 g/m*3 13.8 C 0 km/h
96 05-05-2010 19:09:02 13.7 C 2.37 g/m*3 13.7 C 0 km/h
97 05-05-2010 19:21:01 13.6 C 2.35 g/m*3 13.6 C 0 km/h
98 05-05-2010 19:33:02 13.5 C 2.34 g/m*3 13.5 C 0 km/h
99 05-05-2010 19:45:02 13.3 C 2.43 g/m*3 13.3 C 0 km/h
100 05-05-2010 19:57:02 13.1 C 2.28 g/m*3 13.1 C 0 km/h
Sensor: Nr:Datum:Temp:Abs-Feuchte:Windchill:Wind:
Aussen-T/F 101 05-05-2010 20:09:02 13 C 2.49 g/m*3 13 C 0 km/h
102 05-05-2010 20:21:02 12.9 C 2.82 g/m*3 12.9 C 0 km/h
103 05-05-2010 20:33:02 12.8 C 2.91 g/m*3 12.8 C 0 km/h
104 05-05-2010 20:45:02 12.7 C 2.89 g/m*3 12.7 C 0 km/h
105 05-05-2010 20:57:02 12.6 C 2.88 g/m*3 12.6 C 0 km/h
106 05-05-2010 21:09:02 12.5 C 2.86 g/m*3 12.5 C 0 km/h
107 05-05-2010 21:21:02 12.4 C 2.84 g/m*3 12.4 C 0 km/h
108 05-05-2010 21:33:02 12.3 C 2.82 g/m*3 12.3 C 0 km/h
109 05-05-2010 21:45:02 12.3 C 2.93 g/m*3 12.3 C 0 km/h
110 05-05-2010 21:57:02 12.2 C 2.91 g/m*3 12.2 C 0 km/h
111 05-05-2010 22:09:03 12.1 C 3 g/m*3 12.1 C 0 km/h
112 05-05-2010 22:21:02 12 C 3.09 g/m*3 12 C 0 km/h
113 05-05-2010 22:34:02 11.9 C 3.39 g/m*3 11.9 C 0 km/h
114 05-05-2010 22:46:02 11.7 C 3.35 g/m*3 11.7 C 0 km/h
115 05-05-2010 22:58:02 11.7 C 3.35 g/m*3 11.7 C 0 km/h
116 05-05-2010 23:10:02 11.6 C 3.22 g/m*3 11.6 C 0 km/h
117 05-05-2010 23:22:02 11.5 C 3.2 g/m*3 11.5 C 0 km/h
118 05-05-2010 23:34:02 11.6 C 3.33 g/m*3 11.6 C 0 km/h
119 05-05-2010 23:46:02 11.4 C 3.39 g/m*3 11.4 C 0 km/h
120 05-05-2010 23:58:02 11.4 C 3.39 g/m*3 11.4 C 0 km/h
121 06-05-2010 00:10:02 11.3 C 3.47 g/m*3 11.3 C 0 km/h
122 06-05-2010 00:22:02 11.2 C 3.55 g/m*3 11.2 C 0 km/h
123 06-05-2010 00:34:02 11.2 C 3.55 g/m*3 11.2 C 0 km/h
124 06-05-2010 00:46:02 10.7 C 4.03 g/m*3 10.7 C 0 km/h
125 06-05-2010 00:58:02 9.8 C 4.45 g/m*3 9.8 C 0 km/h
Sensor: Nr:Datum:Temp:Abs-Feuchte:Windchill:Wind:
Aussen-T/F 126 06-05-2010 01:10:02 8.7 C 5.1 g/m*3 8.7 C 0 km/h
127 06-05-2010 01:22:02 7.9 C 5.5 g/m*3 7.9 C 0 km/h
128 06-05-2010 01:34:02 7.3 C 5.93 g/m*3 7.3 C 0 km/h
129 06-05-2010 01:46:02 7.1 C 6.01 g/m*3 7.1 C 0 km/h
130 06-05-2010 01:58:03 7 C 6.04 g/m*3 7 C 0 km/h
131 06-05-2010 02:10:03 6.9 C 6.31 g/m*3 6.9 C 0 km/h
132 06-05-2010 02:22:03 6.8 C 6.42 g/m*3 6.8 C 0 km/h
133 06-05-2010 02:34:03 6.7 C 6.53 g/m*3 6.7 C 0 km/h
134 06-05-2010 02:46:03 6.5 C 6.52 g/m*3 6.5 C 0 km/h
135 06-05-2010 02:58:03 6.8 C 6.73 g/m*3 6.8 C 0 km/h
136 06-05-2010 03:10:03 6.8 C 6.81 g/m*3 6.8 C 0 km/h
137 06-05-2010 03:22:03 6.7 C 6.84 g/m*3 6.7 C 0 km/h
138 06-05-2010 03:34:03 6.5 C 6.82 g/m*3 6.5 C 0 km/h
139 06-05-2010 03:46:03 6.9 C 7.01 g/m*3 6.9 C 0 km/h
140 06-05-2010 03:58:03 6.8 C 7.04 g/m*3 6.8 C 0 km/h
141 06-05-2010 04:10:03 6.9 C 7.08 g/m*3 6.9 C 0 km/h
142 06-05-2010 04:22:03 6.9 C 7.08 g/m*3 6.9 C 0 km/h
143 06-05-2010 04:34:03 6.9 C 7.08 g/m*3 6.9 C 0 km/h
144 06-05-2010 04:46:03 6.9 C 7.08 g/m*3 6.9 C 0 km/h
145 06-05-2010 04:58:03 6.8 C 7.04 g/m*3 6.8 C 0 km/h
146 06-05-2010 05:10:03 6.6 C 7.02 g/m*3 6.6 C 0 km/h
147 06-05-2010 05:22:03 6.5 C 6.97 g/m*3 6.5 C 0 km/h
148 06-05-2010 05:34:03 6.6 C 7.02 g/m*3 6.6 C 0 km/h
149 06-05-2010 05:46:03 6.8 C 7.11 g/m*3 6.8 C 0 km/h
150 06-05-2010 05:58:04 6.8 C 7.11 g/m*3 6.8 C 0 km/h
Sensor: Nr:Datum:Temp:Abs-Feuchte:Windchill:Wind:
Aussen-T/F 151 06-05-2010 06:10:04 6.5 C 6.97 g/m*3 6.5 C 0 km/h
152 06-05-2010 06:22:04 6.5 C 6.97 g/m*3 6.5 C 0 km/h
153 06-05-2010 06:34:04 6.5 C 6.97 g/m*3 6.5 C 0 km/h
154 06-05-2010 06:46:04 6.6 C 7.02 g/m*3 6.6 C 0 km/h
155 06-05-2010 06:58:04 6.5 C 7.05 g/m*3 6.5 C 0 km/h
156 06-05-2010 07:10:01 6.4 C 7 g/m*3 6.4 C 0 km/h
157 06-05-2010 07:22:02 6.4 C 7 g/m*3 6.4 C 0 km/h
158 06-05-2010 07:34:01 6.3 C 6.96 g/m*3 6.3 C 0 km/h
159 06-05-2010 07:46:03 6.5 C 7.05 g/m*3 6.5 C 0 km/h
160 06-05-2010 07:58:03 6.3 C 6.96 g/m*3 6.3 C 0 km/h
161 06-05-2010 08:10:02 6.1 C 6.87 g/m*3 6.1 C 0 km/h
162 06-05-2010 08:22:02 6.2 C 6.91 g/m*3 6.2 C 0 km/h
163 06-05-2010 08:34:03 6.2 C 6.91 g/m*3 6.2 C 0 km/h
164 06-05-2010 08:46:02 6.4 C 7 g/m*3 6.4 C 0 km/h
165 06-05-2010 08:58:02 6.2 C 6.91 g/m*3 6.2 C 0 km/h
166 06-05-2010 09:10:02 6.2 C 6.84 g/m*3 6.2 C 0 km/h
167 06-05-2010 09:22:01 6.4 C 7 g/m*3 6.4 C 0 km/h
168 06-05-2010 09:34:02 6.6 C 7.1 g/m*3 6.6 C 0 km/h
169 06-05-2010 09:46:02 6.8 C 7.19 g/m*3 6.8 C 0 km/h
170 06-05-2010 09:58:02 6.8 C 7.19 g/m*3 6.8 C 0 km/h
171 06-05-2010 10:10:02 6.8 C 7.19 g/m*3 6.8 C 0 km/h
172 06-05-2010 10:22:02 6.9 C 7.24 g/m*3 6.9 C 0 km/h
173 06-05-2010 10:34:02 6.8 C 7.11 g/m*3 6.8 C 0 km/h
174 06-05-2010 10:46:02 6.8 C 7.11 g/m*3 6.8 C 0 km/h
175 06-05-2010 10:58:02 6.9 C 7.16 g/m*3 6.9 C 0 km/h
Sensor: Nr:Datum:Temp:Abs-Feuchte:Windchill:Wind:
Aussen-T/F 176 06-05-2010 11:10:02 7 C 7.21 g/m*3 7 C 0 km/h
177 06-05-2010 11:22:02 7 C 7.13 g/m*3 7 C 0 km/h
178 06-05-2010 11:34:02 7 C 7.13 g/m*3 7 C 0 km/h
179 06-05-2010 11:46:01 7.1 C 7.18 g/m*3 7.1 C 0 km/h
180 06-05-2010 11:58:01 7.1 C 7.18 g/m*3 7.1 C 0 km/h
181 06-05-2010 12:10:01 7.2 C 7.22 g/m*3 7.2 C 0 km/h
182 06-05-2010 12:22:02 6.9 C 7.08 g/m*3 6.9 C 0 km/h
183 06-05-2010 12:34:02 6.9 C 7.01 g/m*3 6.9 C 0 km/h
184 06-05-2010 12:46:01 7.1 C 7.1 g/m*3 7.1 C 0 km/h
185 06-05-2010 12:58:01 7.2 C 7.06 g/m*3 7.2 C 0 km/h
186 06-05-2010 13:10:02 7.5 C 7.2 g/m*3 7.5 C 0 km/h
187 06-05-2010 13:22:01 7.7 C 7.3 g/m*3 7.7 C 0 km/h
188 06-05-2010 13:34:02 7.4 C 7.16 g/m*3 7.4 C 0 km/h
189 06-05-2010 13:46:02 7.3 C 7.19 g/m*3 7.3 C 0 km/h
190 06-05-2010 13:58:02 7.2 C 7.14 g/m*3 7.2 C 0 km/h
191 06-05-2010 14:10:03 7.3 C 7.27 g/m*3 7.3 C 0 km/h
192 06-05-2010 14:22:02 7.4 C 7.32 g/m*3 7.4 C 0 km/h
193 06-05-2010 14:34:03 7.3 C 7.27 g/m*3 7.3 C 0 km/h
194 06-05-2010 14:46:02 7.4 C 7.32 g/m*3 7.4 C 0 km/h
195 06-05-2010 14:58:02 7.6 C 7.49 g/m*3 7.6 C 0 km/h
196 06-05-2010 15:10:02 7.5 C 7.44 g/m*3 7.5 C 0 km/h
197 06-05-2010 15:22:02 7.1 C 7.18 g/m*3 7.1 C 0 km/h
198 06-05-2010 15:34:03 7.1 C 7.25 g/m*3 7.1 C 0 km/h
199 06-05-2010 15:46:01 6.9 C 7.16 g/m*3 6.9 C 0 km/h
200 06-05-2010 15:58:01 6.9 C 7.24 g/m*3 6.9 C 0 km/h
Sensor: Nr:Datum:Temp:Abs-Feuchte:Windchill:Wind:
Aussen-T/F 201 06-05-2010 16:10:02 6.7 C 7.14 g/m*3 6.7 C 0 km/h
202 06-05-2010 16:22:02 6.5 C 6.97 g/m*3 6.5 C 0 km/h
203 06-05-2010 16:34:02 6.5 C 6.97 g/m*3 6.5 C 0 km/h
204 06-05-2010 16:46:03 6.5 C 6.97 g/m*3 6.5 C 0 km/h
205 06-05-2010 16:58:03 6.5 C 6.97 g/m*3 6.5 C 0 km/h
206 06-05-2010 17:10:02 6.5 C 6.9 g/m*3 6.5 C 0 km/h
207 06-05-2010 17:22:03 6.6 C 6.95 g/m*3 6.6 C 0 km/h
208 06-05-2010 17:34:02 6.4 C 6.85 g/m*3 6.4 C 0 km/h
209 06-05-2010 17:46:03 6.5 C 6.9 g/m*3 6.5 C 0 km/h
210 06-05-2010 17:58:03 6.3 C 6.81 g/m*3 6.3 C 0 km/h
211 06-05-2010 18:10:02 6 C 6.6 g/m*3 6 C 0 km/h
212 06-05-2010 18:22:02 5.9 C 6.56 g/m*3 5.9 C 0 km/h
213 06-05-2010 18:34:02 5.8 C 6.52 g/m*3 5.8 C 0 km/h
214 06-05-2010 18:46:02 5.9 C 6.63 g/m*3 5.9 C 0 km/h
215 06-05-2010 18:58:02 5.9 C 6.63 g/m*3 5.9 C 0 km/h
216 06-05-2010 19:10:02 6 C 6.6 g/m*3 6 C 0 km/h
217 06-05-2010 19:22:02 5.9 C 6.63 g/m*3 5.9 C 0 km/h
218 06-05-2010 19:34:02 5.9 C 6.63 g/m*3 5.9 C 0 km/h
219 06-05-2010 19:46:02 5.7 C 6.55 g/m*3 5.7 C 0 km/h
220 06-05-2010 19:58:02 5.6 C 6.57 g/m*3 5.6 C 0 km/h
221 06-05-2010 20:10:01 5.6 C 6.57 g/m*3 5.6 C 0 km/h
222 06-05-2010 20:22:02 5.5 C 6.53 g/m*3 5.5 C 0 km/h
223 06-05-2010 20:34:02 5.6 C 6.65 g/m*3 5.6 C 0 km/h
224 06-05-2010 20:46:02 5.4 C 6.56 g/m*3 5.4 C 0 km/h
225 06-05-2010 20:58:02 5.4 C 6.56 g/m*3 5.4 C 0 km/h
Sensor: Nr:Datum:Temp:Abs-Feuchte:Windchill:Wind:
Aussen-T/F 226 06-05-2010 21:10:01 5.4 C 6.56 g/m*3 5.4 C 0 km/h
227 06-05-2010 21:22:02 5.4 C 6.56 g/m*3 5.4 C 0 km/h
228 06-05-2010 21:34:01 5.3 C 6.52 g/m*3 5.3 C 0 km/h
229 06-05-2010 21:46:03 5.4 C 6.56 g/m*3 5.4 C 0 km/h
230 06-05-2010 21:58:03 5.4 C 6.56 g/m*3 5.4 C 0 km/h
231 06-05-2010 22:10:02 5.4 C 6.63 g/m*3 5.4 C 0 km/h
232 06-05-2010 22:22:02 5.4 C 6.63 g/m*3 5.4 C 0 km/h
233 06-05-2010 22:34:02 5.4 C 6.63 g/m*3 5.4 C 0 km/h
234 06-05-2010 22:47:02 5.4 C 6.63 g/m*3 5.4 C 0 km/h
235 06-05-2010 22:59:02 5.4 C 6.63 g/m*3 5.4 C 0 km/h
236 06-05-2010 23:11:02 5.4 C 6.63 g/m*3 5.4 C 0 km/h
237 06-05-2010 23:23:02 5.4 C 6.63 g/m*3 5.4 C 0 km/h
238 06-05-2010 23:35:02 5.4 C 6.63 g/m*3 5.4 C 0 km/h
239 06-05-2010 23:47:02 5.3 C 6.58 g/m*3 5.3 C 0 km/h
240 06-05-2010 23:59:02 5.3 C 6.58 g/m*3 5.3 C 0 km/h
241 07-05-2010 00:11:02 5.4 C 6.63 g/m*3 5.4 C 0 km/h
242 07-05-2010 00:23:02 5.4 C 6.63 g/m*3 5.4 C 0 km/h
243 07-05-2010 00:35:02 5.4 C 6.63 g/m*3 5.4 C 0 km/h
244 07-05-2010 00:47:02 5.4 C 6.63 g/m*3 5.4 C 0 km/h
245 07-05-2010 00:59:02 5.4 C 6.63 g/m*3 5.4 C 0 km/h
246 07-05-2010 01:11:03 5.4 C 6.63 g/m*3 5.4 C 0 km/h
247 07-05-2010 01:23:03 5.4 C 6.63 g/m*3 5.4 C 0 km/h
248 07-05-2010 01:35:03 5.4 C 6.63 g/m*3 5.4 C 0 km/h
249 07-05-2010 01:47:03 5.4 C 6.63 g/m*3 5.4 C 0 km/h
250 07-05-2010 01:59:03 5.4 C 6.63 g/m*3 5.4 C 0 km/h
Sensor: Nr:Datum:Temp:Abs-Feuchte:Windchill:Wind:
Aussen-T/F 251 07-05-2010 02:11:03 5.4 C 6.63 g/m*3 5.4 C 0 km/h
252 07-05-2010 02:23:03 5.4 C 6.63 g/m*3 5.4 C 0 km/h
253 07-05-2010 02:35:03 5.4 C 6.63 g/m*3 5.4 C 0 km/h
254 07-05-2010 02:47:03 5.4 C 6.63 g/m*3 5.4 C 0 km/h
255 07-05-2010 02:59:03 5.4 C 6.63 g/m*3 5.4 C 0 km/h
256 07-05-2010 03:11:03 5.4 C 6.63 g/m*3 5.4 C 0 km/h
257 07-05-2010 03:23:03 5.4 C 6.63 g/m*3 5.4 C 0 km/h
258 07-05-2010 03:35:03 5.3 C 6.58 g/m*3 5.3 C 0 km/h
259 07-05-2010 03:47:03 5.3 C 6.58 g/m*3 5.3 C 0 km/h
260 07-05-2010 03:59:03 5.2 C 6.54 g/m*3 5.2 C 0 km/h
261 07-05-2010 04:11:03 5.2 C 6.54 g/m*3 5.2 C 0 km/h
262 07-05-2010 04:23:03 5.2 C 6.54 g/m*3 5.2 C 0 km/h
263 07-05-2010 04:35:03 5.2 C 6.54 g/m*3 5.2 C 0 km/h
264 07-05-2010 04:47:03 5.2 C 6.54 g/m*3 5.2 C 0 km/h
265 07-05-2010 04:59:03 5.1 C 6.5 g/m*3 5.1 C 0 km/h
266 07-05-2010 05:11:04 5 C 6.46 g/m*3 5 C 0 km/h
267 07-05-2010 05:23:04 5 C 6.46 g/m*3 5 C 0 km/h
268 07-05-2010 05:35:04 4.9 C 6.41 g/m*3 4.9 C 0 km/h
269 07-05-2010 05:47:04 4.8 C 6.37 g/m*3 4.8 C 0 km/h
270 07-05-2010 05:59:04 4.7 C 6.33 g/m*3 4.7 C 0 km/h
271 07-05-2010 06:11:04 4.7 C 6.33 g/m*3 4.7 C 0 km/h
272 07-05-2010 06:23:04 4.6 C 6.29 g/m*3 4.6 C 0 km/h
273 07-05-2010 06:35:04 4.5 C 6.24 g/m*3 4.5 C 0 km/h
274 07-05-2010 06:47:04 4.6 C 6.29 g/m*3 4.6 C 0 km/h
275 07-05-2010 06:59:04 4.6 C 6.29 g/m*3 4.6 C 0 km/h
Sensor: Nr:Datum:Temp:Abs-Feuchte:Windchill:Wind:
Aussen-T/F 276 07-05-2010 07:11:04 4.6 C 6.29 g/m*3 4.6 C 0 km/h
277 07-05-2010 07:23:04 4.7 C 6.33 g/m*3 4.7 C 0 km/h
278 07-05-2010 07:35:04 4.6 C 6.29 g/m*3 4.6 C 0 km/h
279 07-05-2010 07:47:04 4.7 C 6.33 g/m*3 4.7 C 0 km/h
280 07-05-2010 07:59:04 4.8 C 6.37 g/m*3 4.8 C 0 km/h
281 07-05-2010 08:11:04 4.9 C 6.41 g/m*3 4.9 C 0 km/h
282 07-05-2010 08:23:04 4.8 C 6.37 g/m*3 4.8 C 0 km/h
283 07-05-2010 08:35:02 5 C 6.46 g/m*3 5 C 0 km/h
284 07-05-2010 08:47:02 4.8 C 6.3 g/m*3 4.8 C 0 km/h
285 07-05-2010 08:59:02 4.6 C 6.22 g/m*3 4.6 C 0 km/h
286 07-05-2010 09:11:02 4.9 C 6.28 g/m*3 4.9 C 0 km/h
287 07-05-2010 09:23:03 4.8 C 6.24 g/m*3 4.8 C 0 km/h
288 07-05-2010 09:35:02 4.7 C 6.13 g/m*3 4.7 C 0 km/h
289 07-05-2010 09:47:02 5 C 6.12 g/m*3 5 C 0 km/h
290 07-05-2010 09:59:02 4.9 C 6.08 g/m*3 4.9 C 0 km/h
291 07-05-2010 10:11:02 5 C 6.05 g/m*3 5 C 0 km/h
292 07-05-2010 10:23:02 5.3 C 6.17 g/m*3 5.3 C 0 km/h
293 07-05-2010 10:35:02 6 C 6.39 g/m*3 6 C 0 km/h
294 07-05-2010 10:47:02 5.6 C 6.15 g/m*3 5.6 C 0 km/h
295 07-05-2010 10:59:02 5.7 C 6.12 g/m*3 5.7 C 0 km/h
296 07-05-2010 11:11:01 6.8 C 6.58 g/m*3 6.8 C 0 km/h
297 07-05-2010 11:23:02 7 C 6.66 g/m*3 7 C 0 km/h
298 07-05-2010 11:35:02 7.1 C 6.71 g/m*3 7.1 C 0 km/h
299 07-05-2010 11:47:02 7.1 C 6.71 g/m*3 7.1 C 0 km/h
300 07-05-2010 11:59:02 7.1 C 6.63 g/m*3 7.1 C 0 km/h
Sensor: Nr:Datum:Temp:Abs-Feuchte:Windchill:Wind:
Aussen-T/F 301 07-05-2010 12:11:03 7.1 C 6.4 g/m*3 7.1 C 0 km/h
302 07-05-2010 12:23:02 7 C 6.28 g/m*3 7 C 0 km/h
303 07-05-2010 12:35:02 7.1 C 6.4 g/m*3 7.1 C 0 km/h
304 07-05-2010 12:47:01 7.3 C 6.48 g/m*3 7.3 C 0 km/h
305 07-05-2010 12:59:01 7.2 C 6.2 g/m*3 7.2 C 0 km/h
306 07-05-2010 13:11:02 7.3 C 6.4 g/m*3 7.3 C 0 km/h
307 07-05-2010 13:23:01 7.8 C 6.61 g/m*3 7.8 C 0 km/h
308 07-05-2010 13:35:02 8.3 C 6.66 g/m*3 8.3 C 0 km/h
309 07-05-2010 13:47:01 7.9 C 6.49 g/m*3 7.9 C 0 km/h
310 07-05-2010 13:59:01 7.7 C 6.41 g/m*3 7.7 C 0 km/h
311 07-05-2010 14:11:02 8.6 C 6.87 g/m*3 8.6 C 0 km/h
312 07-05-2010 14:23:01 8.4 C 6.79 g/m*3 8.4 C 0 km/h
313 07-05-2010 14:35:02 8.5 C 6.92 g/m*3 8.5 C 0 km/h
314 07-05-2010 14:47:01 8.3 C 6.83 g/m*3 8.3 C 0 km/h
315 07-05-2010 14:59:01 8.3 C 6.66 g/m*3 8.3 C 0 km/h
316 07-05-2010 15:11:02 8.4 C 6.87 g/m*3 8.4 C 0 km/h
317 07-05-2010 15:23:02 7.8 C 6.61 g/m*3 7.8 C 0 km/h
318 07-05-2010 15:35:02 7.7 C 6.57 g/m*3 7.7 C 0 km/h
319 07-05-2010 15:47:02 8.5 C 7 g/m*3 8.5 C 0 km/h
320 07-05-2010 15:59:02 8.6 C 7.05 g/m*3 8.6 C 0 km/h
321 07-05-2010 16:11:01 9.3 C 7.19 g/m*3 9.3 C 0 km/h
322 07-05-2010 16:23:01 9.2 C 6.97 g/m*3 9.2 C 0 km/h
323 07-05-2010 16:35:01 9 C 6.61 g/m*3 9 C 0 km/h
324 07-05-2010 16:47:01 9.2 C 6.97 g/m*3 9.2 C 0 km/h
325 07-05-2010 16:59:01 9.1 C 6.92 g/m*3 9.1 C 0 km/h
Sensor: Nr:Datum:Temp:Abs-Feuchte:Windchill:Wind:
Aussen-T/F 326 07-05-2010 17:11:02 8.9 C 6.92 g/m*3 8.9 C 0 km/h
327 07-05-2010 17:23:01 9.2 C 6.97 g/m*3 9.2 C 0 km/h
328 07-05-2010 17:35:02 9.4 C 7.05 g/m*3 9.4 C 0 km/h
329 07-05-2010 17:47:01 9.8 C 7.24 g/m*3 9.8 C 0 km/h
330 07-05-2010 17:59:01 9.8 C 7.24 g/m*3 9.8 C 0 km/h
331 07-05-2010 18:11:02 9.8 C 7.24 g/m*3 9.8 C 0 km/h
332 07-05-2010 18:23:02 9.4 C 6.96 g/m*3 9.4 C 0 km/h
333 07-05-2010 18:35:02 9 C 6.88 g/m*3 9 C 0 km/h
334 07-05-2010 18:47:02 9 C 7.05 g/m*3 9 C 0 km/h
335 07-05-2010 18:59:02 8.5 C 7 g/m*3 8.5 C 0 km/h
336 07-05-2010 19:11:02 8.2 C 7.03 g/m*3 8.2 C 0 km/h
337 07-05-2010 19:23:02 8.1 C 6.99 g/m*3 8.1 C 0 km/h
338 07-05-2010 19:35:02 7.9 C 7.06 g/m*3 7.9 C 0 km/h
339 07-05-2010 19:47:02 7.6 C 7.09 g/m*3 7.6 C 0 km/h
340 07-05-2010 19:59:02 7.7 C 7.14 g/m*3 7.7 C 0 km/h
341 07-05-2010 20:11:02 7.3 C 7.03 g/m*3 7.3 C 0 km/h
342 07-05-2010 20:23:01 7.3 C 7.03 g/m*3 7.3 C 0 km/h
343 07-05-2010 20:35:02 7.2 C 7.06 g/m*3 7.2 C 0 km/h
344 07-05-2010 20:47:02 7.1 C 7.1 g/m*3 7.1 C 0 km/h
345 07-05-2010 20:59:02 6.9 C 7.08 g/m*3 6.9 C 0 km/h
346 07-05-2010 21:11:02 6.7 C 6.99 g/m*3 6.7 C 0 km/h
347 07-05-2010 21:23:02 6.8 C 7.04 g/m*3 6.8 C 0 km/h
348 07-05-2010 21:35:02 6.8 C 7.11 g/m*3 6.8 C 0 km/h
349 07-05-2010 21:47:02 6.7 C 7.07 g/m*3 6.7 C 0 km/h
350 07-05-2010 21:59:02 6.4 C 6.93 g/m*3 6.4 C 0 km/h
Sensor: Nr:Datum:Temp:Abs-Feuchte:Windchill:Wind:
Aussen-T/F 351 07-05-2010 22:11:02 6.1 C 6.79 g/m*3 6.1 C 0 km/h
352 07-05-2010 22:23:02 5.9 C 6.71 g/m*3 5.9 C 0 km/h
353 07-05-2010 22:35:02 5.7 C 6.62 g/m*3 5.7 C 0 km/h
354 07-05-2010 22:47:02 5.6 C 6.57 g/m*3 5.6 C 0 km/h
355 07-05-2010 22:59:02 5.7 C 6.69 g/m*3 5.7 C 0 km/h
356 07-05-2010 23:11:01 5.9 C 6.78 g/m*3 5.9 C 0 km/h
357 07-05-2010 23:23:02 5.9 C 6.78 g/m*3 5.9 C 0 km/h
358 07-05-2010 23:35:02 5.9 C 6.85 g/m*3 5.9 C 0 km/h
359 07-05-2010 23:47:02 6 C 6.82 g/m*3 6 C 0 km/h
360 07-05-2010 23:59:03 6.1 C 6.87 g/m*3 6.1 C 0 km/h

Legende:
   Min
   Max


Maximal/Minimal-Werte vom 05.05.2010 - 07.05.2010

Sensor Min Max Avg
Temp
(Aussen-T/F)
2.5 °C
05-05-2010  06:45:03
18.3 °C
05-05-2010  15:09:02
7.76 °C
Abs-Feuchte
(Aussen-T/F)
2.23 g/m*3
05-05-2010  12:09:02
7.49 g/m*3
06-05-2010  14:58:02
5.57 g/m*3
Windchill
(Aussen-T/F)
2.5 C
05-05-2010  06:45:03
18.3 C
05-05-2010  15:09:02
7.73 C

Die Daten stammen von einer Davis Vantage Pro 2 Wetter-Station und werden unter Linux mit der Software wview2wettercgi und aufbereitet. Alle Angaben erfolgen ohne Gewähr für ihre Vollständigkeit oder Richtigkeit.
Kontakt: Rainer Krienke krienke@uni-koblenz.de . Meine Webseiten an der Uni Koblenz oder privat.
Version: $Revision: 0.78 $